Regional Weather Roundup
Issued by NWS

Home | Current Version | Previous Version | Graphics & Text | Print | Product List | Glossary On
Versions: 1 2 3 4 5 6 7 8 9 10 11 12 13 14 15 16 17 18 19 20 21 22 23 24 25 26 27 28 29 30 31 32 33 34 35 36 37 38 39 40 41 42 43 44 45 46 47 48 49 50
450
ASUS45 KCYS 120010
RWRWY

WYOMING REGIONAL WEATHER ROUNDUP
NATIONAL WEATHER SERVICE CHEYENNE WY
500 PM MST THU FEB 11 2016

NOTE:  "FAIR" INDICATES FEW OR NO CLOUDS BELOW 12,000 FEET
WITH NO SIGNIFICANT WEATHER AND/OR OBSTRUCTIONS TO VISIBILITY.

WYZ001-120100-
YELLOWSTONE NATIONAL PARK

CITY           SKY/WX    TMP DP  RH WIND       PRES   REMARKS
LK YELLOWSTONE   N/A     40  19  43 W5        30.34R
6HR MIN TEMP:  34; 6HR MAX TEMP:  43;

W YELLOWSTONE  NOT AVBL

$$
WYZ002>013-054>058-071-098>099-120100-
NORTHERN WYOMING

CITY           SKY/WX    TMP DP  RH WIND       PRES   REMARKS
JACKSON        PTCLDY    39  25  56 CALM      30.32S
CODY           CLOUDY    55  18  22 NW12      30.20R
GREYBULL       FAIR      56  19  23 N13       30.16R
6HR MIN TEMP:  44; 6HR MAX TEMP:  61;

WORLAND        FAIR      46  30  53 S8        30.19R
6HR MIN TEMP:  42; 6HR MAX TEMP:  52;

SHERIDAN       MOCLDY    52  19  28 NW8       30.14F
6HR MIN TEMP:  49; 6HR MAX TEMP:  57;

BUFFALO        FAIR      47  24  40 NW3       30.19R
6HR MIN TEMP:  47; 6HR MAX TEMP:  52;

GILLETTE       FAIR      45  26  47 NW13      30.15R
6HR MIN TEMP:  45; 6HR MAX TEMP:  53;

HULETT         CLOUDY    46  28  49 N12       30.16R
NEWCASTLE      FAIR      46  23  39 NW16G23   30.15R

$$
WYZ014>020-022>026-101>103-120100-
CENTRAL WYOMING

CITY           SKY/WX    TMP DP  RH WIND       PRES   REMARKS
BIG PINEY      FAIR      46  27  47 N5        30.33R
6HR MIN TEMP:  31; 6HR MAX TEMP:  49;

PINEDALE         N/A     41  23  48 N3        30.34S
DUBOIS         CLOUDY    43  21  42 NW13      30.28R
LANDER         FAIR      45  26  47 CALM      30.21R
6HR MIN TEMP:  45; 6HR MAX TEMP:  54;

RIVERTON       FAIR      47  24  40 E7        30.23R
6HR MIN TEMP:  42; 6HR MAX TEMP:  50;

CASPER         FAIR      40  26  57 SW10      30.22R WCI  33
6HR MIN TEMP:  40; 6HR MAX TEMP:  45;

DOUGLAS        FAIR      44  27  51 NW8       30.22R

$$
WYZ021-027>030-104>119-120100-
SOUTHERN WYOMING

CITY           SKY/WX    TMP DP  RH WIND       PRES   REMARKS
EVANSTON       FAIR      41  20  43 SW8       30.39R
6HR MIN TEMP:  33; 6HR MAX TEMP:  42;

KEMMERER       FAIR      37  21  52 W3        30.38S
FORT BRIDGER   CLEAR     39  27  60 W7        30.40R WCI  34
ROCK SPRINGS   FAIR      42  21  43 W20G28    30.34R
DIXON          FAIR      37  20  50 W7        30.38S WCI  32
RAWLINS        FAIR      38  23  55 W24       30.29R WCI  27
6HR MIN TEMP:  36; 6HR MAX TEMP:  39;

SARATOGA       FAIR      37  27  65 W12       30.32R WCI  30
LARAMIE        FAIR      43  26  51 SE7       30.24R
6HR MIN TEMP:  43; 6HR MAX TEMP:  51;

CHEYENNE       FAIR      49  24  37 NW14G32   30.19R
6HR MIN TEMP:  49; 6HR MAX TEMP:  54;

TORRINGTON     FAIR      51  26  37 NW14      30.16R
6HR MIN TEMP:  51; 6HR MAX TEMP:  57;

PINE BLUFFS    FAIR      46  25  42 N25G33    30.17R

$$




USA.gov is the U.S. government's official web portal to all federal, state and local government web resources and services.